Regional Weather Roundup
Issued by NWS Binghamton, NY

Home | Current Version | Previous Version | Text Only | Print | Product List | Glossary On
Versions: 1 2 3 4 5 6 7 8 9 10 11 12 13 14 15 16 17 18 19 20 21 22 23 24 25 26 27 28 29 30 31 32 33 34 35 36 37 38 39 40 41 42 43 44 45 46 47 48 49 50
000
ASUS41 KBGM 271510
RWRBGM
RWRBGM
BINGHAMTON REGIONAL WEATHER ROUNDUP
NATIONAL WEATHER SERVICE BINGHAMTON NY
1100 AM EDT WED AUG 27 2014

Note: "fair" indicates few or no clouds below 12,000 feet with no
significant weather and/or obstructions to visibility.

* = Station(s) that does not report precipitation, such as rain,
snow, etc, also no thunder or fog.

!NYZ009-015>018-022>025-036-037-044>046-055>057-062-271600
...CENTRAL NEW YORK...

CITY           SKY/WX    TMP DP  RH WIND       PRES   REMARKS
BINGHAMTON     CLOUDY    72  65  78 SW5       30.06S
CORTLAND       CLOUDY    72  68  88 W6        30.06R FOG
DANSVILLE      CLOUDY    72  65  78 NW8       30.06S
ELMIRA         CLOUDY    76  68  76 NW5       30.04R
ITHACA         CLOUDY    73  67  81 NW6       30.06R
HAMILTON       CLOUDY    72  66  83 CALM      30.04S
MONTICELLO     SUNNY     75  64  69 NW8       30.07F
NORWICH        CLOUDY    72  63  73 S3        30.04S
PENN YAN       CLOUDY    72  66  81 NW8       30.06R
ROME           CLOUDY    74  68  81 W7        30.01S
SIDNEY         CLOUDY    75  68  78 SW3       30.03F
SYRACUSE       CLOUDY    75  68  78 NW9       30.01S
$$

!PAZ038>040-043-044-047-048-072-271600
...NORTHEAST PENNSYLVANIA...

CITY           SKY/WX    TMP DP  RH WIND       PRES   REMARKS
HAZLETON       SUNNY     75  63  64 W5        30.12S
SCRANTON       SUNNY     77  61  57 W7        30.06F
TOWANDA*       MOSUNNY   79  68  69 W3        30.04S
$$
&&
KEY
WCI = WIND CHILL INDEX
VSB = VISIBILITY
HX  = HEAT INDEX
$$



USA.gov is the U.S. government's official web portal to all federal, state and local government web resources and services.